EW5239 Weather Reports


Display with metric or nautical units.
time (UTC)temp
F
wind
direction
speed
MPH
gust
MPH
rain 1hr
in
rain 24hr
in
rain mn
in
humidity
%
barometer
mb
20260504160130 77 231 7.0 11.0 0.00 0.00 0.00 29 1010.8
20260504151125 78 256 7.0 11.0 0.00 0.00 0.00 30 1011.5
20260504151004 78 226 8.0 11.0 0.00 0.00 0.00 33 1009.6
20260504150625 78 273 10.0 13.0 0.00 0.00 0.00 30 1011.3
20260504150503 78 235 9.0 11.0 0.00 0.00 0.00 33 1009.6
20260504150130 78 256 10.0 13.0 0.00 0.00 0.00 31 1011.5
20260504141003 79 186 9.0 13.0 0.00 0.00 0.00 32 1009.9
20260504140624 79 204 7.0 13.0 0.00 0.00 0.00 31 1011.5
20260504140130 79 219 7.0 8.0 0.00 0.00 0.00 32 1011.8
20260504130624 78 234 9.0 13.0 0.00 0.00 0.00 30 1012.1
20260504130503 78 232 8.0 11.0 0.00 0.00 0.00 34 1010.6
20260504130132 78 255 8.0 11.0 0.00 0.00 0.00 32 1012.2
20260504120130 78 250 8.0 11.0 0.00 0.00 0.00 33 1012.5
20260504110625 76 232 9.0 11.0 0.00 0.00 0.00 34 1013.0
20260504110503 76 228 10.0 12.0 0.00 0.00 0.00 36 1011.5
20260504110130 76 217 10.0 14.0 0.00 0.00 0.00 35 1012.9
20260504100504 74 284 9.0 11.0 0.00 0.00 0.00 39 1012.1
20260504090131 73 203 8.0 13.0 0.00 0.00 0.00 37 1013.8
20260504082004 71 240 10.0 15.0 0.00 0.00 0.00 40 1012.3
20260504081503 71 264 10.0 14.0 0.00 0.00 0.00 40 1012.3
20260504081125 70 279 11.0 14.0 0.00 0.00 0.00 37 1013.8
20260504081004 70 293 11.0 14.0 0.00 0.00 0.00 40 1012.2
20260504080624 70 258 11.0 12.0 0.00 0.00 0.00 38 1013.9
20260504080503 70 305 11.0 12.0 0.00 0.00 0.00 40 1012.1
20260504080130 70 276 10.0 12.0 0.00 0.00 0.00 39 1013.8
20260504070131 66 220 9.0 11.0 0.00 0.00 0.00 43 1013.9
20260504050625 58 214 9.0 13.0 0.00 0.00 0.00 48 1013.6
20260504050503 58 223 9.0 11.0 0.00 0.00 0.00 50 1012.1
20260504050131 58 216 9.0 11.0 0.00 0.00 0.00 49 1013.7
20260504050004 58 219 8.0 11.0 0.00 0.00 0.00 51 1012.0
20260504045624 58 218 8.0 11.0 0.00 0.00 0.00 49 1013.6
20260504045124 57 222 8.0 11.0 0.00 0.00 0.00 49 1013.6
20260504045003 57 229 8.0 11.0 0.00 0.00 0.00 51 1012.0
20260504044624 57 223 9.0 11.0 0.00 0.00 0.00 50 1013.8
20260504044504 57 227 8.0 11.0 0.00 0.00 0.00 52 1011.9
20260504044004 57 220 7.0 11.0 0.00 0.00 0.00 52 1011.9
20260504043625 56 211 7.0 9.0 0.00 0.00 0.00 51 1013.7
20260504043503 57 221 7.0 10.0 0.00 0.00 0.00 52 1011.8
20260504043124 56 221 6.0 9.0 0.00 0.00 0.00 51 1013.6
20260504043004 56 222 8.0 10.0 0.00 0.00 0.00 52 1012.0
20260504042625 56 206 6.0 11.0 0.00 0.00 0.00 51 1013.6
20260504042124 56 219 7.0 11.0 0.00 0.00 0.00 51 1013.6
20260504042003 56 218 8.0 11.0 0.00 0.00 0.00 52 1011.7
20260504041624 56 231 7.0 11.0 0.00 0.00 0.00 51 1013.4
20260504041504 56 198 7.0 10.0 0.00 0.00 0.00 52 1011.7
20260504041125 56 228 7.0 11.0 0.00 0.00 0.00 51 1013.6
20260504041003 56 191 7.0 7.0 0.00 0.00 0.00 52 1011.7
20260504040624 55 235 6.0 7.0 0.00 0.00 0.00 51 1013.5
20260504040503 56 189 7.0 8.0 0.00 0.00 0.00 52 1011.7
20260504040130 55 209 7.0 11.0 0.00 0.00 0.00 51 1013.6
20260504040004 56 210 7.0 11.0 0.00 0.00 0.00 52 1011.6
20260504035625 55 193 6.0 11.0 0.00 0.00 0.00 51 1013.4
20260504035503 56 220 7.0 11.0 0.00 0.00 0.00 52 1011.8
20260504035124 55 200 6.0 8.0 0.00 0.00 0.00 50 1013.3
20260504034624 55 200 6.0 8.0 0.00 0.00 0.00 50 1013.6
20260504034503 56 204 7.0 9.0 0.00 0.00 0.00 51 1011.6
20260504034004 56 213 7.0 9.0 0.00 0.00 0.00 51 1011.4
20260504033625 55 206 7.0 9.0 0.00 0.00 0.00 50 1013.5
20260504033504 56 212 7.0 10.0 0.00 0.00 0.00 51 1011.6
20260504033124 55 205 7.0 10.0 0.00 0.00 0.00 50 1013.3
20260504032625 55 211 6.0 10.0 0.00 0.00 0.00 50 1013.4
20260504031624 56 205 6.0 8.0 0.00 0.00 0.00 49 1013.2
20260504031503 56 224 6.0 9.0 0.00 0.00 0.00 50 1011.6
20260504031124 56 206 6.0 8.0 0.00 0.00 0.00 49 1013.4
20260504031003 56 215 6.0 8.0 0.00 0.00 0.00 50 1011.5
20260504030504 56 220 7.0 8.0 0.00 0.00 0.00 50 1011.6
20260504030130 56 206 6.0 8.0 0.00 0.00 0.00 49 1013.5
20260504030003 56 214 6.0 8.0 0.00 0.00 0.00 50 1011.6
20260504025624 56 202 5.0 8.0 0.00 0.00 0.00 49 1013.4
20260504025503 56 201 6.0 8.0 0.00 0.00 0.00 50 1011.6
20260504025125 56 209 5.0 8.0 0.00 0.00 0.00 48 1013.2
20260504025004 57 205 6.0 8.0 0.00 0.00 0.00 49 1011.5
20260504024625 56 215 6.0 9.0 0.00 0.00 0.00 48 1013.5
20260504024503 57 218 6.0 9.0 0.00 0.00 0.00 49 1011.5
20260504024124 56 222 6.0 9.0 0.00 0.00 0.00 48 1013.6
20260504023624 57 210 6.0 8.0 0.00 0.00 0.00 48 1013.3
20260504023504 57 209 6.0 8.0 0.00 0.00 0.00 48 1011.7
20260504023125 57 209 6.0 11.0 0.00 0.00 0.00 48 1013.2
20260504023003 57 209 7.0 11.0 0.00 0.00 0.00 48 1011.6
20260504022624 57 212 7.0 11.0 0.00 0.00 0.00 46 1013.3
20260504022503 57 217 7.0 11.0 0.00 0.00 0.00 47 1011.7
20260504022124 57 211 7.0 11.0 0.00 0.00 0.00 46 1013.4
20260504022004 58 212 7.0 8.0 0.00 0.00 0.00 47 1011.4
20260504021625 57 211 7.0 10.0 0.00 0.00 0.00 46 1013.5
20260504021503 58 222 7.0 11.0 0.00 0.00 0.00 47 1011.5
20260504021125 57 213 6.0 10.0 0.00 0.00 0.00 46 1013.3
20260504021003 58 240 6.0 11.0 0.00 0.00 0.00 47 1011.5
20260504020504 58 222 5.0 9.0 0.00 0.00 0.00 47 1011.5
20260504020004 58 224 6.0 9.0 0.00 0.00 0.00 47 1011.5
20260504015624 58 208 5.0 6.0 0.00 0.00 0.00 46 1013.5
20260504015125 58 198 5.0 6.0 0.00 0.00 0.00 46 1013.5
20260504015004 58 231 6.0 7.0 0.00 0.00 0.00 47 1011.5
20260504014625 58 208 6.0 11.0 0.00 0.00 0.00 46 1013.4
20260504014503 58 220 7.0 12.0 0.00 0.00 0.00 47 1011.5
20260504014124 58 214 6.0 11.0 0.00 0.00 0.00 46 1013.4
20260504014003 58 218 7.0 12.0 0.00 0.00 0.00 48 1011.5
20260504013624 58 216 5.0 8.0 0.00 0.00 0.00 46 1013.3
20260504013504 58 227 5.0 8.0 0.00 0.00 0.00 48 1011.5
20260504013125 58 223 5.0 7.0 0.00 0.00 0.00 46 1013.4
20260504013003 58 236 5.0 8.0 0.00 0.00 0.00 48 1011.5
20260504012504 58 227 6.0 8.0 0.00 0.00 0.00 47 1011.5
20260504012124 58 219 5.0 7.0 0.00 0.00 0.00 46 1013.5
20260504012003 58 209 5.0 7.0 0.00 0.00 0.00 48 1011.6
20260504011624 58 222 5.0 7.0 0.00 0.00 0.00 46 1013.6
20260504011125 58 225 5.0 8.0 0.00 0.00 0.00 46 1013.6
20260504011004 58 231 6.0 8.0 0.00 0.00 0.00 48 1011.8
20260504010625 58 216 6.0 8.0 0.00 0.00 0.00 47 1013.4
20260504010504 58 223 6.0 8.0 0.00 0.00 0.00 48 1011.5
20260504010130 58 200 5.0 8.0 0.00 0.00 0.00 47 1013.6
20260504010003 58 217 6.0 8.0 0.00 0.00 0.00 48 1011.8
20260504005624 58 200 5.0 7.0 0.00 0.00 0.00 47 1013.6
20260504005504 58 220 4.0 6.0 0.00 0.00 0.00 49 1011.9
20260504005004 58 219 4.0 6.0 0.00 0.00 0.00 49 1011.7
20260504004503 58 216 3.0 4.0 0.00 0.00 0.00 49 1011.8
20260504004124 58 220 4.0 5.0 0.00 0.00 0.00 47 1013.5
20260504004004 58 222 4.0 6.0 0.00 0.00 0.00 49 1011.8
20260504003624 58 205 5.0 8.0 0.00 0.00 0.00 47 1013.7
20260504003503 59 206 5.0 8.0 0.00 0.00 0.00 49 1011.8
20260504003125 58 195 5.0 8.0 0.00 0.00 0.00 47 1013.6
20260504003004 59 201 5.0 8.0 0.00 0.00 0.00 49 1011.8
20260504002624 58 198 5.0 7.0 0.00 0.00 0.00 48 1013.7
20260504002504 58 213 5.0 8.0 0.00 0.00 0.00 49 1011.8
20260504002124 58 198 4.0 7.0 0.00 0.00 0.00 48 1013.5
20260504002003 58 215 5.0 8.0 0.00 0.00 0.00 50 1011.9
20260504001625 58 202 4.0 4.0 0.00 0.00 0.00 48 1013.5
20260504001504 59 215 5.0 5.0 0.00 0.00 0.00 50 1011.9
20260504001125 58 193 4.0 4.0 0.00 0.00 0.00 49 1014.0
20260504001003 59 222 5.0 5.0 0.00 0.00 0.00 50 1011.8
20260504000503 59 213 5.0 7.0 0.00 0.00 0.00 51 1012.0
20260504000130 58 208 5.0 7.0 0.00 0.00 0.00 49 1013.8
20260503235625 59 202 4.0 7.0 0.00 0.00 0.00 49 1013.7
20260503235125 59 194 4.0 5.0 0.00 0.00 0.00 50 1013.8
20260503235003 59 204 4.0 6.0 0.00 0.00 0.00 50 1012.0
20260503234625 59 199 5.0 6.0 0.00 0.00 0.00 50 1013.9
20260503234504 59 196 5.0 6.0 0.00 0.00 0.00 50 1012.2
20260503234124 59 203 5.0 6.0 0.00 0.00 0.00 50 1013.9
20260503234003 59 198 5.0 6.0 0.00 0.00 0.00 50 1012.2
20260503233624 59 200 4.0 7.0 0.00 0.00 0.00 50 1013.9
20260503233503 59 215 4.0 6.0 0.00 0.00 0.00 51 1012.2
20260503233125 59 212 4.0 7.0 0.00 0.00 0.00 51 1013.9
20260503233004 59 231 4.0 6.0 0.00 0.00 0.00 51 1012.2
20260503232624 59 228 4.0 4.0 0.00 0.00 0.00 51 1014.0
20260503232503 59 233 4.0 5.0 0.00 0.00 0.00 51 1012.2
20260503232003 59 213 4.0 5.0 0.00 0.00 0.00 50 1012.2
20260503231625 59 214 4.0 4.0 0.00 0.00 0.00 50 1014.0
20260503231504 60 213 4.0 4.0 0.00 0.00 0.00 51 1012.3
20260503231125 59 216 4.0 4.0 0.00 0.00 0.00 50 1014.2
20260503230624 59 221 4.0 4.0 0.00 0.00 0.00 50 1013.9
20260503230503 60 222 4.0 4.0 0.00 0.00 0.00 51 1012.1
20260503230007 60 221 4.0 4.0 0.00 0.00 0.00 51 1012.3
20260503225625 59 223 3.0 4.0 0.00 0.00 0.00 50 1014.1
20260503225506 60 225 4.0 4.0 0.00 0.00 0.00 50 1012.3
20260503225125 60 221 3.0 4.0 0.00 0.00 0.00 49 1014.1
20260503225006 60 236 4.0 4.0 0.00 0.00 0.00 50 1012.2
20260503224625 60 211 3.0 4.0 0.00 0.00 0.00 49 1013.8
20260503224125 60 208 3.0 4.0 0.00 0.00 0.00 49 1014.3
20260503224006 60 228 4.0 4.0 0.00 0.00 0.00 50 1012.2
20260503223624 60 215 3.0 4.0 0.00 0.00 0.00 49 1014.1
20260503223506 60 223 4.0 4.0 0.00 0.00 0.00 50 1012.2
20260503223125 60 221 3.0 5.0 0.00 0.00 0.00 49 1013.8
20260503223007 60 222 4.0 6.0 0.00 0.00 0.00 50 1012.2
20260503222624 60 221 4.0 6.0 0.00 0.00 0.00 49 1014.0
20260503222124 60 223 4.0 6.0 0.00 0.00 0.00 50 1014.1
20260503222006 60 237 5.0 6.0 0.00 0.00 0.00 51 1012.4
20260503221506 60 240 5.0 6.0 0.00 0.00 0.00 51 1012.4
20260503221125 60 213 4.0 6.0 0.00 0.00 0.00 50 1014.3
20260503221006 60 225 5.0 6.0 0.00 0.00 0.00 51 1012.5
20260503220625 60 211 4.0 5.0 0.00 0.00 0.00 50 1014.2
20260503220506 60 231 5.0 6.0 0.00 0.00 0.00 51 1012.5
20260503220131 60 220 4.0 5.0 0.00 0.00 0.00 50 1014.4
20260503215625 60 223 4.0 5.0 0.00 0.00 0.00 50 1014.3
20260503215507 61 227 4.0 5.0 0.00 0.00 0.00 51 1012.5
20260503215124 60 219 4.0 5.0 0.00 0.00 0.00 50 1014.2
20260503215006 61 224 4.0 4.0 0.00 0.00 0.00 50 1012.6
20260503214625 61 223 4.0 5.0 0.00 0.00 0.00 49 1014.3
20260503214506 61 224 4.0 5.0 0.00 0.00 0.00 49 1012.6
20260503214125 61 233 4.0 5.0 0.00 0.00 0.00 49 1014.3
20260503214006 61 230 4.0 5.0 0.00 0.00 0.00 49 1012.6
20260503213624 61 230 3.0 4.0 0.00 0.00 0.00 48 1014.1
20260503213506 61 232 4.0 5.0 0.00 0.00 0.00 49 1012.4
20260503213125 61 224 3.0 4.0 0.00 0.00 0.00 48 1014.1
20260503213006 61 227 4.0 5.0 0.00 0.00 0.00 48 1012.6
20260503212625 61 224 4.0 4.0 0.00 0.00 0.00 48 1014.2
20260503212506 61 225 4.0 5.0 0.00 0.00 0.00 48 1012.4
20260503212124 61 221 4.0 4.0 0.00 0.00 0.00 48 1014.0
20260503212007 61 231 4.0 5.0 0.00 0.00 0.00 49 1012.3
20260503211624 61 217 4.0 4.0 0.00 0.00 0.00 48 1014.2
20260503211124 61 216 3.0 4.0 0.00 0.00 0.00 48 1014.4
20260503211007 60 225 2.0 4.0 0.00 0.00 0.00 50 1012.4
20260503210624 60 217 2.0 3.0 0.00 0.00 0.00 49 1014.2
20260503210130 60 212 2.0 2.0 0.00 0.00 0.00 48 1014.1
20260503210007 60 0 0.0 0.0 0.00 0.00 0.00 50 1012.5
20260503205625 60 204 1.0 2.0 0.00 0.00 0.00 47 1014.1
20260503205125 61 198 1.0 2.0 0.00 0.00 0.00 46 1014.3
20260503205006 60 225 1.0 2.0 0.00 0.00 0.00 48 1012.5
20260503204624 61 189 1.0 2.0 0.00 0.00 0.00 45 1014.1
20260503204507 61 221 1.0 2.0 0.00 0.00 0.00 47 1012.5
20260503204006 61 217 2.0 2.0 0.00 0.00 0.00 47 1012.3
20260503203506 61 222 2.0 2.0 0.00 0.00 0.00 46 1012.4
20260503203124 62 213 1.0 2.0 0.00 0.00 0.00 44 1014.2
20260503203006 62 219 2.0 2.0 0.00 0.00 0.00 46 1012.4
20260503202506 62 219 2.0 2.0 0.00 0.00 0.00 45 1012.4
20260503202124 63 221 1.0 2.0 0.00 0.00 0.00 43 1014.1
20260503202007 62 225 2.0 2.0 0.00 0.00 0.00 45 1012.4
20260503201506 62 225 2.0 2.0 0.00 0.00 0.00 45 1012.6
20260503201007 63 225 2.0 2.0 0.00 0.00 0.00 44 1012.4
20260503200506 63 225 2.0 2.0 0.00 0.00 0.00 43 1012.5
20260503200131 64 199 1.0 2.0 0.00 0.00 0.00 42 1014.3
20260503200007 63 225 2.0 2.0 0.00 0.00 0.00 43 1012.6
20260503195625 64 213 1.0 2.0 0.00 0.00 0.00 41 1014.1
20260503195506 64 225 2.0 2.0 0.00 0.00 0.00 42 1012.5
20260503195125 64 236 1.0 2.0 0.00 0.00 0.00 41 1014.1
20260503194625 65 223 2.0 3.0 0.00 0.00 0.00 41 1014.0
20260503194125 65 204 2.0 3.0 0.00 0.00 0.00 40 1014.2
20260503194006 65 220 2.0 3.0 0.00 0.00 0.00 42 1012.6
20260503193625 65 208 2.0 2.0 0.00 0.00 0.00 40 1014.1
20260503193506 65 225 2.0 3.0 0.00 0.00 0.00 42 1012.7
20260503193125 65 214 2.0 2.0 0.00 0.00 0.00 40 1014.2
20260503193006 65 221 2.0 3.0 0.00 0.00 0.00 41 1012.5
20260503192625 65 215 2.0 2.0 0.00 0.00 0.00 39 1014.4
20260503192507 65 220 2.0 3.0 0.00 0.00 0.00 41 1012.6
20260503192125 66 216 2.0 2.0 0.00 0.00 0.00 39 1014.1
20260503192006 66 222 2.0 3.0 0.00 0.00 0.00 41 1012.6
20260503191625 66 216 2.0 2.0 0.00 0.00 0.00 39 1014.3
20260503191125 66 221 2.0 2.0 0.00 0.00 0.00 37 1014.2
20260503190506 67 225 2.0 3.0 0.00 0.00 0.00 38 1012.4
20260503190130 67 221 2.0 2.0 0.00 0.00 0.00 37 1014.1
20260503190007 67 225 2.0 3.0 0.00 0.00 0.00 38 1012.5
20260503185624 67 226 2.0 2.0 0.00 0.00 0.00 36 1014.2
20260503185506 67 225 2.0 3.0 0.00 0.00 0.00 38 1012.5
20260503185124 67 226 2.0 2.0 0.00 0.00 0.00 36 1014.2
20260503185006 67 225 2.0 3.0 0.00 0.00 0.00 38 1012.4
20260503184506 68 225 2.0 3.0 0.00 0.00 0.00 36 1012.3
20260503184124 69 225 2.0 2.0 0.00 0.00 0.00 34 1014.0
20260503184006 69 225 2.0 3.0 0.00 0.00 0.00 35 1012.3
20260503183625 69 224 2.0 2.0 0.00 0.00 0.00 34 1014.1
20260503183506 69 225 2.0 3.0 0.00 0.00 0.00 35 1012.3
20260503183125 70 215 2.0 2.0 0.00 0.00 0.00 34 1013.8
20260503183006 70 222 2.0 3.0 0.00 0.00 0.00 33 1012.3
20260503182625 70 209 2.0 3.0 0.00 0.00 0.00 32 1013.8
20260503182506 70 222 3.0 4.0 0.00 0.00 0.00 33 1012.2
20260503182006 71 207 4.0 6.0 0.00 0.00 0.00 33 1012.1
20260503181624 71 205 4.0 6.0 0.00 0.00 0.00 32 1013.7
20260503181507 71 198 4.0 6.0 0.00 0.00 0.00 33 1012.0
20260503181125 71 214 4.0 6.0 0.00 0.00 0.00 32 1013.7
20260503181006 71 214 3.0 4.0 0.00 0.00 0.00 32 1012.0
20260503180625 72 225 4.0 6.0 0.00 0.00 0.00 30 1013.7
20260503180506 72 211 3.0 6.0 0.00 0.00 0.00 31 1012.1
20260503180131 72 215 4.0 6.0 0.00 0.00 0.00 29 1013.6
20260503180006 72 206 4.0 6.0 0.00 0.00 0.00 31 1012.1
20260503175625 72 210 4.0 6.0 0.00 0.00 0.00 29 1013.6
20260503175506 73 213 4.0 6.0 0.00 0.00 0.00 31 1012.0
20260503175125 73 203 4.0 5.0 0.00 0.00 0.00 28 1013.6
20260503174506 74 221 4.0 5.0 0.00 0.00 0.00 29 1012.0
20260503174125 74 224 4.0 6.0 0.00 0.00 0.00 28 1013.6
20260503174006 74 215 4.0 6.0 0.00 0.00 0.00 29 1012.0
20260503173624 74 231 4.0 7.0 0.00 0.00 0.00 27 1013.5
20260503173506 75 211 5.0 7.0 0.00 0.00 0.00 28 1011.9
20260503173124 74 227 6.0 8.0 0.00 0.00 0.00 27 1013.5
20260503173007 75 224 6.0 8.0 0.00 0.00 0.00 27 1012.0
20260503172506 76 228 6.0 8.0 0.00 0.00 0.00 27 1011.9
20260503172125 75 206 7.0 10.0 0.00 0.00 0.00 27 1013.9
20260503171624 75 221 7.0 10.0 0.00 0.00 0.00 26 1013.3
20260503171506 76 211 7.0 10.0 0.00 0.00 0.00 26 1011.9
20260503171124 76 212 7.0 11.0 0.00 0.00 0.00 26 1013.5
20260503171006 77 219 7.0 11.0 0.00 0.00 0.00 26 1011.9
20260503170624 76 202 7.0 11.0 0.00 0.00 0.00 25 1013.7
20260503170507 77 220 8.0 11.0 0.00 0.00 0.00 25 1012.0